Weather reports worldwide

Advertisment
Dunkerque, France (7010): temperature & dewpoint: 17.04.2019 19:00:00 - 23.04.2019 19:00:00 (CEST)Dunkerque, France (7010): wind speed & gusts: 17.04.2019 19:00:00 - 23.04.2019 19:00:00 (CEST)Dunkerque, France (7010): wind direction: 17.04.2019 19:00:00 - 23.04.2019 19:00:00 (CEST)Dunkerque, France (7010): reduced air pressure: 17.04.2019 19:00:00 - 23.04.2019 19:00:00 (CEST)Dunkerque, France (7010): visibility: 17.04.2019 19:00:00 - 23.04.2019 19:00:00 (CEST)Dunkerque, France (7010): precipitation: 17.04.2019 19:00:00 - 23.04.2019 19:00:00 (CEST)
Date & Time tt [°C] td [°C] ff [km/h] ff [kn] fx [km/h] fx [kn] dd ppp [hPa] vv [km] rr [mm]
23.04.2019 19:00:00 - - - - - - - - - -
23.04.2019 18:00:00 14,4 9,8 10 5 17 9 NE 995,2 - 0,0
23.04.2019 17:00:00 14,5 9,3 13 7 22 12 NE 995,6 10 0,0
23.04.2019 16:00:00 16,0 9,4 16 8 23 12 ENE 996,1 - 0,0
23.04.2019 15:00:00 15,5 9,2 16 9 21 11 NE 996,3 - 0,0
23.04.2019 14:00:00 15,3 9,4 16 8 24 13 ENE 996,6 - 0,0
23.04.2019 13:00:00 15,2 9,3 19 10 26 14 NE 996,9 - 0,0
23.04.2019 12:00:00 15,1 9,7 14 7 19 10 NE 997,3 - 0,0
23.04.2019 11:00:00 16,3 5,8 8 5 16 8 ESE 997,7 10 0,0
23.04.2019 10:00:00 13,9 6,5 13 7 18 10 E 997,8 - 0,0
23.04.2019 09:00:00 13,2 5,6 16 9 29 16 E 998,1 - 0,0
23.04.2019 08:00:00 13,5 4,6 16 9 29 16 ESE 998,2 15 0,0
23.04.2019 07:00:00 13,6 5,0 17 9 28 15 ESE 998,5 - 0,0
23.04.2019 06:00:00 13,3 6,6 16 9 23 12 E 998,7 - 0,0
23.04.2019 05:00:00 14,6 5,4 18 10 29 15 ESE 999,0 - 0,0
23.04.2019 04:00:00 15,3 5,2 19 10 33 18 ESE 999,5 - 0,0
23.04.2019 03:00:00 16,2 4,9 23 12 35 19 ESE 999,8 - 0,0
23.04.2019 02:00:00 14,1 8,1 14 8 27 15 E 1000,2 - 0,0
23.04.2019 01:00:00 12,9 9,9 13 7 16 9 ENE 1000,5 - 0,0
23.04.2019 00:00:00 13,3 10,1 7 4 11 6 ENE 1001,2 - 0,0
22.04.2019 23:00:00 13,8 9,6 6 3 10 5 ENE 1001,8 - 0,0
22.04.2019 22:00:00 14,1 8,7 8 4 11 6 NE 1002,3 - 0,0
22.04.2019 21:00:00 14,6 8,3 6 3 10 6 NE 1002,3 - 0,0
22.04.2019 20:00:00 15,9 8,6 8 4 14 8 NE 1002,5 - 0,0
22.04.2019 19:00:00 15,7 9,4 8 4 19 10 NE 1002,9 - 0,0
22.04.2019 18:00:00 24,8 5,0 10 6 21 11 S 1003,1 - 0,0
22.04.2019 17:00:00 24,3 5,6 13 7 26 14 SE 1003,7 - 0,0
22.04.2019 16:00:00 23,2 5,6 18 10 31 17 SSE 1004,3 - 0,0
22.04.2019 15:00:00 17,7 9,8 9 5 21 12 NE 1005,1 - 0,0
22.04.2019 14:00:00 17,7 10,1 12 7 21 11 NE 1005,6 - 0,0
22.04.2019 13:00:00 23,1 5,5 15 8 25 14 ESE 1006,1 - 0,0
22.04.2019 12:00:00 21,9 7,7 11 6 17 9 SE 1007,0 - 0,0
22.04.2019 11:00:00 18,3 8,0 9 5 14 8 E 1007,7 - 0,0
22.04.2019 10:00:00 15,3 7,3 11 6 20 11 E 1008,1 - 0,0
22.04.2019 09:00:00 14,0 6,4 11 6 16 9 ESE 1008,6 - 0,0
22.04.2019 08:00:00 11,1 6,8 8 4 11 6 E 1009,0 - 0,0
22.04.2019 07:00:00 10,6 7,8 7 4 10 6 E 1009,3 - 0,0
22.04.2019 06:00:00 10,8 9,7 5 3 11 6 E 1009,8 - 0,0
22.04.2019 05:00:00 11,0 9,9 8 5 12 7 ENE 1010,4 - 0,2
22.04.2019 04:00:00 11,0 9,9 8 4 10 5 ENE 1011,2 - 0,0
22.04.2019 03:00:00 10,9 9,5 5 3 8 4 NE 1012,0 - 0,0
22.04.2019 02:00:00 10,9 9,5 6 3 10 5 NNE 1013,0 10 0,0
22.04.2019 01:00:00 10,9 9,3 7 4 9 5 N 1013,8 - 0,0
22.04.2019 00:00:00 11,0 9,3 6 4 9 5 NNE 1014,4 - 0,0
21.04.2019 23:00:00 11,2 9,1 8 4 12 6 NNE 1015,0 10 0,0
21.04.2019 22:00:00 11,5 8,9 6 4 13 7 NNE 1015,5 - 0,0
21.04.2019 21:00:00 11,9 8,4 10 5 15 8 NE 1015,6 - -
21.04.2019 20:00:00 12,9 8,8 9 5 16 9 NE 1015,6 - 0,0
21.04.2019 19:00:00 14,1 8,3 10 6 16 8 NE 1016,3 - 0,0
21.04.2019 18:00:00 14,9 8,4 13 7 18 10 NE 1017,0 - 0,0
21.04.2019 17:00:00 15,0 8,7 11 6 16 9 NNE 1017,8 - 0,0
21.04.2019 16:00:00 15,3 8,3 12 7 17 9 NE 1018,5 - 0,0
21.04.2019 15:00:00 15,2 8,0 9 5 18 10 NE 1019,3 - 0,0
21.04.2019 14:00:00 15,6 8,8 12 6 18 10 NE 1020,1 10 0,0
21.04.2019 13:00:00 14,9 9,5 10 5 16 9 ENE 1020,6 - 0,0
21.04.2019 12:00:00 15,2 9,5 10 6 15 8 NE 1021,3 - 0,0
21.04.2019 11:00:00 15,5 8,0 8 4 13 7 ENE 1021,8 10 0,0
21.04.2019 10:00:00 14,2 8,4 8 4 11 6 ENE 1022,2 - 0,0
21.04.2019 09:00:00 13,1 8,4 5 3 12 7 ENE 1022,4 - 0,0
21.04.2019 08:00:00 11,9 6,8 7 4 11 6 ENE 1022,6 - 0,0
21.04.2019 07:00:00 10,4 6,5 6 4 12 7 E 1022,6 - 0,0
21.04.2019 06:00:00 10,6 6,0 8 5 15 8 E 1022,9 - 0,0
21.04.2019 05:00:00 10,6 7,3 4 2 7 4 E 1023,4 - 0,0
21.04.2019 04:00:00 11,0 9,7 6 4 11 6 E 1024,1 - 0,0
21.04.2019 03:00:00 10,9 9,3 8 4 10 6 NNE 1024,6 - 0,0
21.04.2019 02:00:00 11,0 9,1 9 5 13 7 NE 1025,2 - 0,0
21.04.2019 01:00:00 10,9 9,0 6 3 14 8 NE 1025,7 - 0,0
21.04.2019 00:00:00 11,1 9,4 6 3 13 7 N 1026,3 - 0,0
20.04.2019 23:00:00 11,2 9,1 9 5 13 7 NNE 1026,6 10 0,0
20.04.2019 22:00:00 11,4 9,0 9 5 15 8 NE 1026,8 - 0,0
20.04.2019 21:00:00 11,7 9,1 10 6 18 10 NE 1026,8 - 0,0
20.04.2019 20:00:00 12,8 8,9 11 6 17 9 NE 1026,7 - 0,0
20.04.2019 19:00:00 13,7 9,1 13 7 23 12 NE 1026,8 - 0,0
20.04.2019 18:00:00 14,5 9,3 8 4 15 8 ENE 1027,4 - 0,0
20.04.2019 17:00:00 13,7 9,1 7 4 19 11 NNE 1027,8 - 0,0
20.04.2019 16:00:00 13,9 9,5 14 8 22 12 N 1028,3 - 0,0
20.04.2019 15:00:00 13,7 9,7 10 6 19 10 N 1029,0 - 0,0
20.04.2019 14:00:00 13,8 9,6 12 6 19 10 N 1029,1 8 0,0
20.04.2019 13:00:00 14,2 9,4 10 5 18 10 NNE 1029,3 - 0,0
20.04.2019 12:00:00 13,7 9,9 11 6 17 9 NNE 1029,5 - 0,0
20.04.2019 11:00:00 13,2 9,6 9 5 18 10 N 1029,8 8 0,0
20.04.2019 10:00:00 12,9 9,5 7 4 12 7 N 1029,9 - 0,0
20.04.2019 09:00:00 12,8 9,4 6 3 12 6 NNE 1029,8 - 0,0
20.04.2019 08:00:00 11,7 9,4 10 5 14 8 NE 1029,3 10 0,0
20.04.2019 07:00:00 10,7 9,0 10 5 14 8 NE 1028,8 - 0,0
20.04.2019 06:00:00 10,7 9,0 8 4 11 6 N 1028,7 - 0,2
20.04.2019 05:00:00 10,8 9,2 7 4 11 6 N 1028,7 - 0,0
20.04.2019 04:00:00 10,8 9,2 8 5 13 7 NNE 1028,6 - 0,0
20.04.2019 03:00:00 11,1 9,4 8 4 14 8 NNE 1028,5 - 0,0
20.04.2019 02:00:00 11,3 9,4 11 6 19 10 NNE 1028,8 10 0,0
20.04.2019 01:00:00 11,2 9,3 11 6 16 9 N 1029,0 - 0,0
20.04.2019 00:00:00 11,2 9,3 10 5 14 7 NNE 1029,1 - 0,0
19.04.2019 23:00:00 11,4 9,1 8 4 13 7 N 1029,1 10 0,0
19.04.2019 22:00:00 11,4 9,0 6 4 13 7 NNE 1028,9 - 0,0
19.04.2019 21:00:00 12,1 9,1 9 5 14 8 NNE 1028,4 - 0,0
19.04.2019 20:00:00 13,0 9,1 10 6 18 10 NE 1028,0 8 0,0
19.04.2019 19:00:00 13,8 9,0 14 7 22 12 ENE 1027,6 - 0,0
19.04.2019 18:00:00 14,6 9,2 13 7 19 11 ENE 1027,4 - 0,0
19.04.2019 17:00:00 15,5 8,9 11 6 20 11 ENE 1027,3 - 0,0
19.04.2019 16:00:00 14,8 9,2 11 6 16 8 NNE 1027,4 - 0,0
19.04.2019 15:00:00 14,9 9,3 13 7 17 9 NE 1027,3 - 0,0
19.04.2019 14:00:00 14,9 8,8 14 8 21 11 NE 1027,3 8 0,0
19.04.2019 13:00:00 14,7 9,1 15 8 19 10 NE 1027,4 - 0,0
19.04.2019 12:00:00 14,3 9,3 13 7 21 11 NE 1027,5 - 0,0
19.04.2019 11:00:00 13,6 9,2 15 8 22 12 NE 1027,2 - 0,0
19.04.2019 10:00:00 13,6 8,8 12 6 16 9 NE 1027,1 - 0,0
19.04.2019 09:00:00 12,6 9,1 9 5 18 10 ENE 1026,7 - 0,0
19.04.2019 08:00:00 11,7 8,5 10 6 15 8 ENE 1026,3 - 0,0
19.04.2019 07:00:00 10,7 5,7 7 4 15 8 E 1025,8 - 0,0
19.04.2019 06:00:00 11,8 6,5 12 7 22 12 E 1025,4 - 0,0
19.04.2019 05:00:00 11,9 6,2 19 11 24 13 E 1025,2 - 0,0
19.04.2019 04:00:00 10,8 8,6 12 6 14 8 ENE 1025,0 - 0,0
19.04.2019 03:00:00 11,2 8,6 11 6 15 8 ENE 1024,9 - 0,0
19.04.2019 02:00:00 11,2 8,9 10 6 15 8 E 1024,6 - 0,0
19.04.2019 01:00:00 11,4 9,0 14 8 19 10 ENE 1024,6 - 0,0
19.04.2019 00:00:00 11,2 9,1 13 7 19 11 ENE 1024,5 - 0,0
18.04.2019 23:00:00 11,3 9,2 14 8 22 12 ENE 1024,2 10 0,0
18.04.2019 22:00:00 11,5 9,1 15 8 23 12 ENE 1024,0 - 0,0
18.04.2019 21:00:00 11,9 8,9 16 9 24 13 ENE 1023,6 - 0,0
18.04.2019 20:00:00 13,0 8,9 16 8 26 14 ENE 1023,1 - 0,0
18.04.2019 19:00:00 13,7 8,9 19 10 31 17 ENE 1022,6 - 0,0
18.04.2019 18:00:00 14,9 8,6 19 11 32 17 ENE 1022,4 - 0,0
18.04.2019 17:00:00 15,5 8,7 16 9 25 14 ENE 1022,4 - 0,0
18.04.2019 16:00:00 16,0 8,5 22 12 35 19 NE 1022,6 - 0,0
18.04.2019 15:00:00 15,6 8,8 21 11 28 15 NE 1022,6 - 0,0
18.04.2019 14:00:00 16,0 9,0 14 8 21 12 ENE 1022,5 - 0,0
18.04.2019 13:00:00 14,6 9,4 14 8 23 12 ENE 1022,7 - 0,0
18.04.2019 12:00:00 14,1 9,3 18 10 23 13 NE 1022,7 - 0,0
18.04.2019 11:00:00 13,3 9,5 15 8 20 11 NE 1022,9 8 0,0
18.04.2019 10:00:00 12,9 9,3 10 6 14 8 ENE 1022,9 - 0,0
18.04.2019 09:00:00 12,8 9,1 9 5 14 8 E 1022,7 - 0,0
18.04.2019 08:00:00 10,7 8,8 10 5 15 8 ENE 1022,6 - 0,0
18.04.2019 07:00:00 9,4 8,2 9 5 18 10 E 1022,1 - 0,0
18.04.2019 06:00:00 9,7 8,8 13 7 22 12 E 1022,0 - 0,0
18.04.2019 05:00:00 9,8 8,9 11 6 13 7 ENE 1022,0 - 0,0
18.04.2019 04:00:00 9,7 8,6 8 4 9 5 ENE 1022,2 - 0,0
18.04.2019 03:00:00 10,1 9,0 7 4 9 5 ENE 1022,3 - 0,0
18.04.2019 02:00:00 10,3 9,4 8 4 12 6 E 1022,6 - 0,0
18.04.2019 01:00:00 10,2 9,3 10 6 14 7 ENE 1022,3 - 0,0
18.04.2019 00:00:00 10,3 9,4 9 5 16 9 E 1022,0 - 0,0
17.04.2019 23:00:00 10,3 9,4 13 7 21 11 ENE 1022,0 1,0 0,0
17.04.2019 22:00:00 10,5 9,6 16 9 22 12 ENE 1021,8 - 0,0
17.04.2019 21:00:00 10,3 9,2 16 9 28 15 ENE 1021,2 - 0,0
17.04.2019 20:00:00 10,6 9,2 20 11 30 16 ENE 1020,9 1,5 0,0
17.04.2019 19:00:00 11,4 9,1 19 10 25 14 ENE 1020,7 - 0,0

tt = temperature
td = dewpoint
ff = wind speed
fx = gusts
dd = wind direction
ppp = reduced air pressure
vv = visibility
rr = precipitation

Next stations